Location: Ahstedt
(52.2048°N, 10.1060°E)
Time: 04:30:02
(UTC+00:00)

Cosmos 2366 rocket - Visible Passes

Search period start: 19 April 2026 00:00
Search period end: 29 April 2026 00:00
Orbit: 953 x 997 km, 82.9° (Epoch: 18 April)

Date Brightness Start Highest point End Pass type
(mag) Time Alt. Az. Time Alt. Az. Time Alt. Az.
19 Apr 4.2 19:32:08 10° SSW 19:38:18 78° WNW 19:44:28 10° N visible
19 Apr 6.6 21:20:46 10° W 21:24:47 18° NW 21:28:49 10° NNW visible
20 Apr 5.0 19:57:47 10° SSW 20:03:42 49° WNW 20:09:39 10° N visible
20 Apr 6.9 21:48:58 10° WNW 21:50:48 11° NW 21:52:38 10° NNW visible
21 Apr 5.9 20:23:55 10° SW 20:29:17 31° WNW 20:34:41 10° N visible
22 Apr 4.1 19:02:34 10° S 19:08:43 88° W 19:14:55 10° N visible
22 Apr 6.6 20:50:40 10° WSW 20:55:03 20° WNW 20:59:29 10° NNW visible
23 Apr 4.8 19:28:05 10° SSW 19:34:05 55° WNW 19:40:08 10° N visible
23 Apr 6.9 21:18:21 10° WNW 21:21:01 13° NW 21:23:41 10° NNW visible
24 Apr 5.7 19:54:04 10° SW 19:59:37 35° WNW 20:05:13 10° N visible
25 Apr 7.3 03:13:36 10° NNE 03:16:24 13° NE 03:19:12 10° ENE visible
25 Apr 6.5 20:20:37 10° WSW 20:25:20 23° WNW 20:30:05 10° N visible
26 Apr 6.9 20:47:58 10° W 20:51:14 15° NW 20:54:32 10° NNW visible
27 Apr 5.6 19:24:15 10° SW 19:29:58 39° WNW 19:35:43 10° N visible
28 Apr 7.6 02:44:34 10° NNE 02:46:37 12° NE 02:48:40 10° ENE visible
28 Apr 6.4 19:50:39 10° WSW 19:55:38 25° WNW 20:00:40 10° N visible
